Regional Weather Roundup
Issued by NWS

Home | Current Version | Previous Version | Graphics & Text | Print | Product List | Glossary On
Versions: 1 2 3 4 5 6 7 8 9 10 11 12 13 14 15 16 17 18 19 20 21 22 23 24 25 26 27 28 29 30 31 32 33 34 35 36 37 38 39 40 41 42 43 44 45 46 47 48 49 50
000
ASUS45 KABQ 300401
RWRNM
WEATHER ROUNDUP FOR NEW MEXICO
NATIONAL WEATHER SERVICE ALBUQUERQUE NM
900 PM MST THU JAN 29 2015

NOTE: "FAIR" MEANS FEW OR NO CLOUDS BELOW 12,000 FEET AGL WITH NO
       SIGNIFICANT WEATHER OR OBSTRUCTIONS TO VISION.

      THIS PRODUCT IS RELEASED AS TWO VERSIONS.  ONE VERSION NEAR
      THE TOP OF THE HOUR CONTAINING PRELIMINARY DATA FROM ALBUQUERQUE
      AND OTHER STATIONS.  A FINAL VERSION WITH ADDITIONAL DATA IS
      ISSUED ABOUT 10 MINUTES AFTER THE HOUR.

NMZ501-503-504-510>518-300500-
NORTHWEST PLATEAU/NORTHCENTRAL MOUNTAINS

CITY           SKY/WX    TMP DP  RH WIND       PRES   REMARKS
FARMINGTON     MOCLDY    45  27  49 SE8       30.31R
SANTA FE       CLOUDY    38  13  35 SE16      30.44S WCI  29
TAOS           CLOUDY    36  25  64 SW5       30.43S WCI  32

$$
NMZ402-403-502-505>509-300500-
WESTCENTRAL MOUNTAINS/SOUTHWEST MOUNTAINS

CITY           SKY/WX    TMP DP  RH WIND       PRES   REMARKS
GALLUP         CLOUDY    43  27  53 NE8       30.28F
SILVER CITY    LGT RAIN  41  39  93 SE15      30.33S

$$
NMZ407-409-411-412-300500-
SOUTHERN DESERTS

CITY           SKY/WX    TMP DP  RH WIND       PRES   REMARKS
DEMING         LGT RAIN  45  41  86 E13       30.32R
HOLLOMAN AFB   CLOUDY    50  36  58 W8        30.33S
ALAMOGORDO     CLOUDY    50  34  53 NW8       30.35R
T OR C         CLOUDY    50  29  44 N9        30.34R

$$
NMZ519>523-300500-
CENTRAL VALLEYS/CENTRAL HIGHLANDS

CITY           SKY/WX    TMP DP  RH WIND       PRES   REMARKS
ALBUQUERQUE    CLOUDY    43  19  38 E28G35    30.40S
DOUBLE EAGLE   CLOUDY    39  19  45 E21       30.41F WCI  29
CLINES CORNERS CLOUDY    32  17  54 E15       30.44F WCI  22
BELEN          CLOUDY    46  24  42 SE10      30.38F
SOCORRO        NOT AVBL

$$
NMZ524>526-539-540-300500-
SOUTHCENTRAL MOUNTAINS

CITY           SKY/WX    TMP DP  RH WIND       PRES   REMARKS
RUIDOSO        NOT AVBL

$$
NMZ527>531-300500-
NORTHEAST HIGHLANDS/NORTHEAST PLAINS

CITY           SKY/WX    TMP DP  RH WIND       PRES   REMARKS
LAS VEGAS      CLOUDY    32  23  69 S3        30.49F
RATON          CLOUDY    34  25  69 SW5       30.47S WCI  30
CLAYTON        CLOUDY    40  24  53 SW3       30.48R

$$
NMZ532>537-300500-
EASTCENTRAL PLAINS

CITY           SKY/WX    TMP DP  RH WIND       PRES   REMARKS
TUCUMCARI      CLOUDY    41  31  67 W3        30.49R
CANNON AFB     CLOUDY    36  28  72 NE5       30.48F WCI  32
CLOVIS AIRPORT CLOUDY    37  27  65 NE8       30.49S WCI  31

$$
NMZ028-029-538-300500-
SOUTHEAST PLAINS

CITY           SKY/WX    TMP DP  RH WIND       PRES   REMARKS
ROSWELL        CLOUDY    47  28  47 E6        30.48R
ARTESIA        CLOUDY    48  30  49 E3        30.50R
CARLSBAD       CLOUDY    52  26  36 E12       30.47R
HOBBS          CLOUDY    46  23  39 NE12      30.49S


$$


USA.gov is the U.S. government's official web portal to all federal, state and local government web resources and services.